AI5ON Weather Reports


time (UTC)temp
C
wind
direction
speed
KPH
gust
KPH
rain 1hr
cm
rain 24hr
cm
rain mn
cm
humidity
%
barometer
mb
20260901091422 25 87 3.2 4.8 0.00 0.00 0.00 96 1014.4
20260901090917 25 97 1.6 3.2 0.00 0.00 0.00 95 1014.3
20260901090417 25 82 3.2 4.8 0.00 0.00 0.00 96 1014.4
20260901085912 25 99 3.2 6.4 0.00 0.00 0.00 96 1014.6
20260901085408 25 75 3.2 3.2 0.00 0.00 0.00 96 1014.6
20260901084904 25 95 3.2 3.2 0.00 0.00 0.00 96 1014.7
20260901084401 25 95 1.6 3.2 0.00 0.00 0.00 96 1014.8
20260901083855 25 89 3.2 4.8 0.00 0.00 0.00 95 1014.7
20260901083356 25 102 1.6 3.2 0.00 0.00 0.00 95 1014.7
20260901082854 25 117 1.6 4.8 0.00 0.00 0.00 95 1014.6
20260901082349 25 75 4.8 11.3 0.00 0.00 0.00 95 1014.6
20260901081844 25 90 1.6 4.8 0.00 0.00 0.00 95 1014.7
20260901081340 25 79 3.2 4.8 0.00 0.00 0.00 95 1014.7
20260901080839 25 70 3.2 4.8 0.00 0.00 0.00 94 1014.4
20260901080334 25 103 3.2 9.7 0.00 0.00 0.00 94 1014.6
20260901075833 25 92 3.2 4.8 0.00 0.00 0.00 94 1014.4
20260901075329 25 98 4.8 4.8 0.00 0.00 0.00 94 1014.5
20260901074824 25 88 3.2 9.7 0.00 0.00 0.00 94 1014.5
20260901074318 25 87 6.4 9.7 0.00 0.00 0.00 94 1014.5
20260901073814 25 94 3.2 4.8 0.00 0.00 0.00 94 1014.4
20260901073309 25 71 3.2 6.4 0.00 0.00 0.00 94 1014.6
20260901072806 25 66 3.2 6.4 0.00 0.00 0.00 94 1014.7
20260901072309 25 81 3.2 3.2 0.00 0.00 0.00 94 1015.0
20260901071800 25 82 3.2 3.2 0.00 0.00 0.00 93 1014.6
20260901071259 25 86 4.8 9.7 0.00 0.00 0.00 93 1015.0
20260901070758 26 103 3.2 6.4 0.00 0.00 0.00 93 1015.3
20260901070253 26 131 1.6 6.4 0.00 0.00 0.00 93 1015.2
20260901065753 26 139 4.8 4.8 0.00 0.00 0.00 92 1015.0
20260901065248 26 113 1.6 4.8 0.00 0.00 0.00 92 1015.2
20260901064744 26 78 3.2 6.4 0.00 0.00 0.00 91 1015.0
20260901064240 26 82 4.8 9.7 0.00 0.00 0.00 91 1015.2
20260901063738 26 87 6.4 9.7 0.00 0.00 0.00 91 1015.0
20260901063233 26 87 4.8 6.4 0.00 0.00 0.00 91 1015.1
20260901062729 26 86 4.8 9.7 0.00 0.00 0.00 91 1015.0
20260901062225 26 94 4.8 9.7 0.00 0.00 0.00 90 1015.1
20260901061721 26 92 4.8 4.8 0.00 0.00 0.00 90 1015.2
20260901061220 26 87 6.4 14.5 0.00 0.00 0.00 90 1015.2
20260901060715 26 99 6.4 9.7 0.00 0.00 0.00 90 1015.1
20260901060211 26 104 11.3 12.9 0.00 0.00 0.00 90 1015.2
20260901055706 26 77 6.4 9.7 0.00 0.00 0.00 90 1015.5
20260901055203 26 62 8.0 11.3 0.00 0.00 0.00 89 1015.3
20260901054700 26 90 6.4 11.3 0.00 0.00 0.00 89 1015.4
20260901054155 26 107 8.0 12.9 0.00 0.00 0.00 89 1015.4
20260901053651 26 78 1.6 6.4 0.00 0.00 0.00 89 1015.3
20260901053147 26 77 6.4 11.3 0.00 0.00 0.00 89 1015.3
20260901052642 26 54 9.7 12.9 0.00 0.00 0.00 88 1015.3
20260901052137 26 82 6.4 11.3 0.00 0.00 0.00 88 1015.3
20260901051636 26 79 6.4 11.3 0.00 0.00 0.00 89 1015.4
20260901051136 26 86 4.8 11.3 0.00 0.00 0.00 89 1015.4
20260901050631 26 82 8.0 9.7 0.00 0.00 0.00 89 1015.3
20260901050126 26 84 3.2 4.8 0.00 0.00 0.00 89 1015.7
20260901045621 26 84 3.2 4.8 0.00 0.20 0.20 90 1015.5
20260901045116 25 88 8.0 9.7 0.00 0.20 0.20 90 1015.5
20260901044612 25 70 3.2 4.8 0.00 0.20 0.20 91 1015.4
20260901044107 25 83 3.2 4.8 0.00 0.20 0.20 91 1015.5
20260901043603 25 81 1.6 4.8 0.00 0.20 0.20 91 1015.4
20260901043058 25 92 3.2 3.2 0.00 0.20 0.20 92 1015.5
20260901042557 25 87 1.6 4.8 0.00 0.20 0.20 92 1015.4
20260901042053 25 84 3.2 4.8 0.00 0.20 0.20 92 1015.5
20260901041548 25 77 3.2 3.2 0.00 0.20 0.20 92 1015.4
20260901041048 25 87 3.2 4.8 0.00 0.20 0.20 92 1015.6
20260901040548 25 82 1.6 3.2 0.00 0.20 0.20 92 1015.3
20260901040043 25 77 4.8 4.8 0.00 0.20 0.20 92 1015.5
20260901035541 25 85 3.2 3.2 0.00 0.20 0.20 92 1015.4
20260901035040 25 82 3.2 3.2 0.00 0.20 0.20 91 1015.4
20260901034540 25 70 1.6 3.2 0.00 0.20 0.20 91 1015.1
20260901034034 25 79 4.8 4.8 0.00 0.20 0.20 90 1015.2
20260901033533 25 78 4.8 4.8 0.00 0.20 0.20 89 1015.3
20260901033033 25 87 4.8 4.8 0.00 0.20 0.20 89 1015.3
20260901032532 25 86 4.8 6.4 0.00 0.20 0.20 89 1015.4
20260901032027 25 96 3.2 6.4 0.00 0.20 0.20 89 1015.4
20260901031523 25 82 1.6 4.8 0.00 0.20 0.20 89 1015.3
20260901031019 25 93 3.2 6.4 0.00 0.20 0.20 89 1015.1
20260901030519 25 98 1.6 6.4 0.00 0.20 0.20 89 1015.2
20260901030019 25 77 3.2 6.4 0.00 0.20 0.20 89 1015.1
20260901025513 25 92 4.8 4.8 0.00 0.20 0.20 88 1015.0
20260901025012 25 93 3.2 3.2 0.00 0.20 0.20 89 1015.1
20260901024508 25 96 3.2 3.2 0.00 0.20 0.20 89 1015.1
20260901024007 25 89 1.6 4.8 0.00 0.20 0.20 88 1015.0
20260901023507 26 73 3.2 3.2 0.00 0.20 0.20 87 1015.2
20260901023002 26 92 3.2 9.7 0.00 0.20 0.20 86 1015.1
20260901022458 26 104 3.2 4.8 0.00 0.20 0.20 85 1015.0
20260901021958 26 101 4.8 4.8 0.00 0.20 0.20 84 1014.9
20260901021454 26 92 6.4 6.4 0.00 0.20 0.20 84 1014.9
20260901020949 26 88 8.0 11.3 0.00 0.20 0.20 84 1014.9
20260901020444 26 85 6.4 9.7 0.00 0.20 0.20 83 1015.0
20260901015943 26 105 6.4 14.5 0.00 0.20 0.20 83 1015.0
20260901015440 26 91 6.4 6.4 0.00 0.20 0.20 83 1014.8
20260901014939 26 84 3.2 4.8 0.00 0.20 0.20 83 1014.7
20260901014435 26 94 8.0 6.4 0.00 0.20 0.20 82 1014.8
20260901013930 26 99 4.8 11.3 0.00 0.20 0.20 82 1014.6
20260901013426 26 87 3.2 4.8 0.00 0.20 0.20 81 1014.6
20260901012922 26 90 6.4 6.4 0.00 0.20 0.20 81 1014.6
20260901012416 26 87 3.2 4.8 0.00 0.20 0.20 80 1014.4
20260901011912 26 63 6.4 6.4 0.00 0.20 0.20 81 1014.5
20260901011408 26 78 4.8 9.7 0.00 0.20 0.20 81 1014.4
20260901010906 26 81 6.4 6.4 0.00 0.20 0.20 80 1014.4
20260901010401 27 82 3.2 4.8 0.00 0.20 0.20 80 1014.4
20260901005859 27 78 1.6 6.4 0.00 0.20 0.20 79 1014.4
20260901005355 27 80 3.2 4.8 0.00 0.20 0.20 78 1014.5
20260901004850 27 80 1.6 6.4 0.00 0.20 0.20 77 1014.4
20260901004349 27 88 3.2 6.4 0.00 0.20 0.20 77 1014.5
20260901003844 27 98 4.8 11.3 0.00 0.20 0.20 76 1014.6
20260901003339 27 71 4.8 12.9 0.00 0.20 0.20 77 1014.7
20260901002838 27 99 9.7 12.9 0.00 0.20 0.20 76 1014.6
20260901002337 28 86 9.7 16.1 0.00 0.20 0.20 75 1014.5
20260901001832 28 109 16.1 20.9 0.00 0.20 0.20 78 1014.5
20260901001327 27 100 3.2 4.8 0.00 0.20 0.20 79 1014.4
20260901000823 28 90 1.6 4.8 0.00 0.20 0.20 79 1014.5
20260901000318 28 81 3.2 4.8 0.00 0.20 0.20 78 1014.6
20260831235816 28 95 3.2 4.8 0.00 0.20 0.20 77 1014.6
20260831235312 28 88 3.2 4.8 0.00 0.20 0.20 77 1014.6
20260831234807 28 77 3.2 9.7 0.00 0.20 0.20 76 1014.7
20260831234307 28 76 1.6 6.4 0.00 0.20 0.20 76 1014.6
20260831233803 28 93 3.2 4.8 0.00 0.20 0.20 75 1014.6
20260831233258 28 89 4.8 4.8 0.00 0.20 0.20 74 1014.7
20260831232752 28 85 3.2 6.4 0.00 0.20 0.20 73 1014.7
20260831232249 28 93 4.8 4.8 0.00 0.20 0.20 73 1014.6
20260831231744 28 100 4.8 6.4 0.00 0.20 0.20 72 1014.5
20260831231241 29 68 6.4 11.3 0.00 0.20 0.20 72 1014.8
20260831230736 29 84 6.4 6.4 0.00 0.20 0.20 71 1014.6
20260831230231 29 87 3.2 9.7 0.00 0.20 0.20 71 1014.7
20260831225730 29 120 6.4 9.7 0.00 0.20 0.20 71 1014.8
20260831225226 29 108 8.0 12.9 0.00 0.20 0.20 69 1014.9
20260831224720 29 89 6.4 11.3 0.00 0.20 0.20 69 1015.1
20260831224216 29 94 4.8 11.3 0.00 0.20 0.20 69 1015.0
20260831223711 29 68 9.7 20.9 0.00 0.20 0.20 68 1014.9
20260831223208 29 72 6.4 11.3 0.00 0.20 0.20 69 1014.7
20260831222703 29 85 8.0 14.5 0.00 0.20 0.20 69 1014.8
20260831222159 29 110 6.4 9.7 0.00 0.20 0.20 71 1015.0
20260831221654 29 92 4.8 11.3 0.00 0.20 0.20 72 1015.1
20260831221149 29 101 8.0 12.9 0.00 0.20 0.20 73 1015.1
20260831220644 29 107 4.8 12.9 0.00 0.20 0.20 74 1015.2
20260831220139 30 101 6.4 16.1 0.00 0.20 0.20 73 1015.3
20260831215634 30 115 6.4 9.7 0.00 0.20 0.20 72 1015.1
20260831215130 30 89 8.0 11.3 0.00 0.20 0.20 71 1015.0
20260831214627 30 105 8.0 11.3 0.00 0.20 0.20 71 1015.1
20260831214123 30 121 6.4 12.9 0.00 0.20 0.20 70 1015.1
20260831213620 30 96 4.8 9.7 0.00 0.20 0.20 71 1015.0
20260831213115 30 98 8.0 14.5 0.00 0.20 0.20 69 1014.8
20260831212611 30 133 16.1 25.7 0.00 0.20 0.20 70 1014.8
20260831212107 30 109 11.3 14.5 0.00 0.20 0.20 70 1014.8
20260831211607 30 69 8.0 16.1 0.00 0.20 0.20 71 1014.8
20260831211106 31 90 4.8 9.7 0.00 0.20 0.20 71 1014.8
20260831210601 31 60 6.4 11.3 0.00 0.20 0.20 72 1014.9
20260831210057 31 86 3.2 4.8 0.00 0.20 0.20 71 1014.9
20260831205556 31 93 6.4 9.7 0.00 0.20 0.20 72 1014.9
20260831205053 30 99 1.6 6.4 0.00 0.20 0.20 73 1015.1
20260831204547 30 61 3.2 9.7 0.00 0.20 0.20 75 1015.3
20260831204045 30 92 3.2 4.8 0.00 0.20 0.20 76 1015.1
20260831203540 30 60 3.2 4.8 0.00 0.20 0.20 76 1015.0
20260831203039 30 86 3.2 4.8 0.00 0.20 0.20 76 1015.1
20260831202533 30 72 6.4 14.5 0.00 0.20 0.20 74 1015.2
20260831202033 30 77 6.4 9.7 0.00 0.20 0.20 75 1015.2
20260831201532 30 63 4.8 4.8 0.00 0.20 0.20 76 1015.4
20260831201027 30 75 4.8 6.4 0.00 0.20 0.20 77 1015.5
20260831200523 29 80 4.8 4.8 0.00 0.20 0.20 79 1015.5
20260831200018 29 90 3.2 3.2 0.00 0.20 0.20 81 1015.4
20260831195514 28 80 0.0 3.2 0.00 0.20 0.20 83 1015.2
20260831195014 28 82 6.4 6.4 0.00 0.20 0.20 81 1015.2
20260831194509 28 114 3.2 4.8 0.00 0.20 0.20 84 1015.4
20260831194008 27 88 4.8 9.7 0.00 0.20 0.20 84 1015.2
20260831193504 27 94 3.2 9.7 0.00 0.20 0.20 85 1015.3
20260831192958 27 84 4.8 4.8 0.00 0.20 0.20 87 1015.3
20260831192453 26 73 0.0 1.6 0.00 0.20 0.20 89 1015.4
20260831191948 26 71 3.2 3.2 0.00 0.20 0.20 91 1015.9
20260831191445 26 73 1.6 1.6 0.00 0.20 0.20 92 1016.0
20260831190941 25 73 1.6 1.6 0.00 0.20 0.20 93 1015.9
20260831190435 25 72 4.8 4.8 0.00 0.20 0.20 93 1016.0
20260831185935 25 69 1.6 6.4 0.89 0.20 0.20 92 1016.4
20260831185431 25 100 6.4 11.3 1.07 0.18 0.18 90 1016.5
20260831184930 26 84 9.7 16.1 0.18 0.03 0.03 86 1016.4
20260831184425 29 111 20.9 27.4 0.00 0.00 0.00 75 1016.4
20260831183921 32 107 27.4 41.8 0.00 0.00 0.00 62 1015.9
20260831183420 32 98 12.9 14.5 0.00 0.00 0.00 59 1015.7
20260831182919 33 107 12.9 14.5 0.00 0.00 0.00 58 1015.7
20260831182415 33 87 9.7 16.1 0.00 0.00 0.00 61 1015.9
20260831181910 32 64 6.4 11.3 0.00 0.00 0.00 63 1015.8
20260831181406 32 73 14.5 22.5 0.00 0.00 0.00 63 1015.8
20260831180905 32 73 3.2 12.9 0.00 0.00 0.00 63 1015.9
20260831180400 32 108 8.0 14.5 0.00 0.00 0.00 62 1016.0
20260831175859 32 60 4.8 11.3 0.00 0.00 0.00 66 1016.0
20260831175356 31 70 8.0 16.1 0.00 0.00 0.00 65 1016.4
20260831174852 31 69 16.1 17.7 0.00 0.00 0.00 64 1016.2
20260831174347 31 86 1.6 4.8 0.00 0.00 0.00 71 1016.2
20260831173846 31 42 8.0 14.5 0.00 0.00 0.00 67 1016.3
20260831173340 32 27 6.4 11.3 0.00 0.00 0.00 66 1016.1
20260831172835 32 68 9.7 12.9 0.00 0.00 0.00 65 1016.3
20260831172331 31 90 1.6 11.3 0.00 0.00 0.00 68 1016.4
20260831171830 31 81 6.4 16.1 0.00 0.00 0.00 67 1016.6
20260831171327 31 56 1.6 6.4 0.00 0.00 0.00 67 1016.6
20260831170824 31 60 6.4 11.3 0.00 0.00 0.00 66 1016.6
20260831170320 31 35 4.8 11.3 0.00 0.00 0.00 66 1016.6
20260831165816 31 81 9.7 12.9 0.00 0.00 0.00 65 1016.7
20260831165312 31 108 8.0 14.5 0.00 0.00 0.00 67 1016.8
20260831164808 31 111 8.0 14.5 0.00 0.00 0.00 67 1016.7
20260831164304 31 65 4.8 12.9 0.00 0.00 0.00 68 1016.6
20260831163759 31 78 6.4 16.1 0.00 0.00 0.00 69 1016.7
20260831163255 31 78 6.4 14.5 0.00 0.00 0.00 67 1016.7
20260831162753 31 90 12.9 17.7 0.00 0.00 0.00 66 1016.8
20260831162249 31 36 11.3 16.1 0.00 0.00 0.00 68 1016.8
20260831161748 31 65 9.7 12.9 0.00 0.00 0.00 67 1016.9
20260831161244 30 56 3.2 11.3 0.00 0.00 0.00 71 1016.9
20260831160744 30 71 9.7 12.9 0.00 0.00 0.00 70 1016.7
20260831160239 30 70 8.0 14.5 0.00 0.00 0.00 72 1016.7
20260831155739 30 83 3.2 12.9 0.00 0.00 0.00 72 1016.8
20260831155234 31 95 6.4 14.5 0.00 0.00 0.00 71 1016.8
20260831154730 31 76 4.8 14.5 0.00 0.00 0.00 69 1016.9
20260831154226 31 18 9.7 12.9 0.00 0.00 0.00 70 1016.9
20260831153725 30 57 6.4 12.9 0.00 0.00 0.00 74 1017.0
20260831153221 30 87 4.8 11.3 0.00 0.00 0.00 74 1017.0
20260831152716 30 83 3.2 9.7 0.00 0.00 0.00 74 1017.1
20260831152212 31 75 14.5 17.7 0.00 0.00 0.00 68 1017.0
20260831151712 30 86 6.4 9.7 0.00 0.00 0.00 74 1016.9
20260831151206 31 104 4.8 6.4 0.00 0.00 0.00 71 1017.1
20260831150702 31 70 8.0 11.3 0.00 0.00 0.00 72 1017.1
20260831150157 30 75 3.2 11.3 0.00 0.00 0.00 77 1017.1
20260831145656 30 83 9.7 14.5 0.00 0.00 0.00 76 1017.1
20260831145153 30 82 6.4 11.3 0.00 0.00 0.00 75 1017.0
20260831144648 30 74 4.8 9.7 0.00 0.00 0.00 77 1016.9
20260831144144 30 79 6.4 17.7 0.00 0.00 0.00 76 1016.9
20260831143643 30 78 3.2 6.4 0.00 0.00 0.00 81 1017.0
20260831143139 29 48 4.8 6.4 0.00 0.00 0.00 81 1017.0
20260831142635 28 77 6.4 11.3 0.00 0.00 0.00 82 1017.0
20260831142136 28 81 3.2 6.4 0.00 0.00 0.00 82 1017.0
20260831141635 28 54 3.2 12.9 0.00 0.00 0.00 81 1017.0
20260831141130 28 99 1.6 6.4 0.00 0.00 0.00 84 1016.7
20260831140629 28 77 1.6 3.2 0.00 0.00 0.00 84 1016.8
20260831140124 28 78 1.6 3.2 0.00 0.00 0.00 86 1016.6
20260831135622 27 87 3.2 6.4 0.00 0.00 0.00 86 1016.7
20260831135118 27 73 6.4 6.4 0.00 0.00 0.00 87 1016.8
20260831134614 27 97 3.2 6.4 0.00 0.00 0.00 88 1016.5
20260831134114 27 71 9.7 12.9 0.00 0.00 0.00 88 1016.5
20260831133613 27 74 3.2 9.7 0.00 0.00 0.00 89 1016.5
20260831133108 27 59 3.2 11.3 0.00 0.00 0.00 88 1016.6
20260831132605 27 90 3.2 4.8 0.00 0.00 0.00 89 1016.3
20260831132103 27 75 3.2 9.7 0.00 0.00 0.00 89 1016.3
20260831131558 26 87 0.0 1.6 0.00 0.00 0.00 90 1016.3
20260831131055 26 95 1.6 4.8 0.00 0.00 0.00 90 1016.2
20260831130549 26 77 3.2 3.2 0.00 0.00 0.00 90 1016.2
20260831130045 26 76 3.2 4.8 0.00 0.00 0.00 91 1016.4
20260831125538 26 77 1.6 1.6 0.00 0.00 0.00 92 1016.1
20260831125033 26 82 0.0 1.6 0.00 0.00 0.00 92 1016.3
20260831124530 25 70 1.6 1.6 0.00 0.00 0.00 93 1016.2
20260831124026 25 70 1.6 1.6 0.00 0.00 0.00 93 1016.1
20260831123524 25 70 1.6 3.2 0.00 0.00 0.00 94 1016.3
20260831123019 25 74 0.0 3.2 0.00 0.00 0.00 97 1016.1
20260831122514 25 80 0.0 3.2 0.00 0.00 0.00 99 1016.0
20260831122009 24 80 1.6 1.6 0.00 0.00 0.00 99 1016.2
20260831121509 24 80 0.0 1.6 0.00 0.00 0.00 99 1016.1
20260831121006 24 81 0.0 1.6 0.00 0.00 0.00 99 1016.1
20260831120504 23 81 0.0 0.0 0.00 0.00 0.00 99 1015.8
20260831120000 23 81 0.0 0.0 0.00 0.00 0.00 99 1015.9
20260831115456 23 81 0.0 0.0 0.00 0.00 0.00 99 1015.9
20260831114951 23 81 0.0 0.0 0.00 0.00 0.00 99 1015.9
20260831114449 23 81 0.0 0.0 0.00 0.00 0.00 99 1015.7
20260831113945 23 81 0.0 1.6 0.00 0.00 0.00 99 1015.6
20260831113444 23 81 1.6 1.6 0.00 0.00 0.00 99 1015.8
20260831112940 23 81 0.0 0.0 0.00 0.00 0.00 99 1015.7
20260831112439 23 81 0.0 0.0 0.00 0.00 0.00 99 1015.6
20260831111935 23 81 0.0 0.0 0.00 0.00 0.00 99 1015.6
20260831111431 23 80 0.0 1.6 0.00 0.00 0.00 99 1015.6
20260831110926 23 81 0.0 1.6 0.00 0.00 0.00 99 1015.5
20260831110421 23 81 0.0 1.6 0.00 0.00 0.00 99 1015.6
20260831105920 23 81 1.6 0.0 0.00 0.00 0.00 99 1015.4
20260831105416 23 80 1.6 1.6 0.00 0.00 0.00 99 1015.5
20260831104911 23 81 0.0 0.0 0.00 0.00 0.00 99 1015.3
20260831104407 23 81 0.0 1.6 0.00 0.00 0.00 99 1015.3
20260831103902 23 81 0.0 0.0 0.00 0.00 0.00 99 1015.2
20260831103357 23 81 0.0 0.0 0.00 0.00 0.00 99 1015.2
20260831102852 23 81 0.0 0.0 0.00 0.00 0.00 99 1015.4
20260831102347 23 81 0.0 0.0 0.00 0.00 0.00 99 1015.3
20260831101843 23 81 0.0 0.0 0.00 0.00 0.00 99 1015.1
20260831101342 23 80 0.0 0.0 0.00 0.00 0.00 99 1015.1
20260831100839 23 81 0.0 0.0 0.00 0.00 0.00 99 1015.3
20260831100335 23 81 0.0 1.6 0.00 0.00 0.00 99 1015.1
20260831095834 23 80 0.0 0.0 0.00 0.00 0.00 99 1015.3
20260831095334 23 80 0.0 1.6 0.00 0.00 0.00 99 1015.2
20260831094829 23 81 0.0 0.0 0.00 0.00 0.00 99 1015.1
20260831094324 23 81 0.0 0.0 0.00 0.00 0.00 99 1015.4
20260831093820 23 80 0.0 0.0 0.00 0.00 0.00 99 1015.0
20260831093315 23 81 0.0 0.0 0.00 0.00 0.00 99 1015.2
20260831092812 23 81 0.0 0.0 0.00 0.00 0.00 99 1015.0
20260831092308 23 80 0.0 0.0 0.00 0.00 0.00 99 1014.9
20260831091802 23 80 0.0 0.0 0.00 0.00 0.00 99 1014.9